Orange, MA

7:51 PM EST on December 15, 2019 (GMT -0500)
Orange Municipal

Weather History for KORE - October, 2019

Change the Weather History Date:

Sunday, October 27, 2019

  Actual Average Record
Temperature  
Mean Temperature 45 °F -  
Max Temperature 48 °F 53 °F 71 °F (2010)
Min Temperature 42 °F 31 °F 23 °F (2016)
Degree Days  
Heating Degree Days 20    
Moisture  
Dew Point 43 °F    
Average Humidity 88    
Maximum Humidity 93    
Minimum Humidity 77    
Precipitation  
Precipitation 0.82 in - - ()
Sea Level Pressure  
Sea Level Pressure 29.99 in    
Wind  
Wind Speed 4 mph ()    
Max Wind Speed 13 mph    
Max Gust Speed 17 mph    
Visibility 7.2 miles    
Events Rain    
Averages and records for this station are not official NWS values.
T = Trace of Precipitation, MM = Missing Value Source: Averaged Metar Reports

Daily Weather History Graph

Daily Weather History Graph

Search for Another Location

Airport or City:

Astronomy

Oct. 27, 2019 Rise Set
Actual Time 7:16 AM EDT 5:49 PM EDT
Civil Twilight 6:47 AM EDT 6:18 PM EDT
Nautical Twilight 6:14 AM EDT 6:51 PM EDT
Astronomical Twilight 5:41 AM EDT 7:23 PM EDT
Moon 6:18 AM EDT (10/27) 5:58 PM EDT (10/27)
Length of Visible Light 11h 30m
Length of Day
10h 32m
Waning Crescent, 0% of the Moon is Illuminated
Oct 27
Waning Crescent
Oct 27
New
Nov 4
First Quarter
Nov 12
Full
Nov 19
Last Quarter

Hourly Weather History & Observations

Time (EDT) Temp. Windchill Dew Point Humidity Pressure Visibility Wind Dir Wind Speed Gust Speed Precip Events Conditions
12:52 AM 42.1 °F - 37.9 °F 85% 30.32 in 10.0 mi Calm Calm - N/A   Clear
1:52 AM 42.1 °F - 39.0 °F 89% 30.30 in 10.0 mi Calm Calm - N/A   Overcast
2:52 AM 43.0 °F - 39.0 °F 86% 30.28 in 10.0 mi Calm Calm - 0.00 in Rain Light Rain
3:52 AM 43.0 °F - 39.9 °F 89% 30.26 in 10.0 mi Calm Calm - 0.01 in Rain Light Rain
4:52 AM 43.0 °F - 39.9 °F 89% 30.25 in 10.0 mi Calm Calm - 0.00 in Rain Light Rain
5:52 AM 44.1 °F - 41.0 °F 89% 30.22 in 10.0 mi Calm Calm - 0.01 in Rain Light Rain
6:52 AM 44.1 °F - 42.1 °F 93% 30.21 in 9.0 mi Calm Calm - 0.00 in   Overcast
7:52 AM 46.0 °F - 43.0 °F 89% 30.19 in 10.0 mi Calm Calm - N/A   Overcast
8:52 AM 48.0 °F - 41.0 °F 77% 30.17 in 10.0 mi ESE 5.8 mph - N/A   Overcast
9:52 AM 46.9 °F - 42.1 °F 83% 30.15 in 4.0 mi ESE 4.6 mph - 0.05 in Rain Rain
10:12 AM 46.9 °F - 41.0 °F 80% 30.12 in 6.0 mi ESE 6.9 mph - 0.03 in Rain Light Rain
10:52 AM 46.9 °F - 43.0 °F 86% 30.12 in 5.0 mi SSE 5.8 mph - 0.08 in Rain Rain
11:52 AM 48.0 °F - 44.1 °F 86% 30.08 in 4.0 mi East 10.4 mph 17.3 mph 0.13 in Rain Rain
12:52 PM 48.0 °F - 44.1 °F 86% 30.03 in 4.0 mi East 6.9 mph - 0.17 in Rain Rain
1:06 PM 48.0 °F - 43.0 °F 83% 30.00 in 4.0 mi ESE 6.9 mph - 0.05 in Rain Heavy Rain
1:52 PM 46.9 °F - 42.1 °F 83% 29.96 in 7.0 mi ENE 5.8 mph - 0.17 in Rain Light Rain
2:18 PM 46.9 °F - 42.1 °F 83% 29.94 in 9.0 mi ENE 8.1 mph - 0.01 in Rain Light Rain
2:52 PM 46.9 °F - 43.0 °F 86% 29.94 in 10.0 mi East 5.8 mph - 0.02 in Rain Light Rain
3:15 PM 46.9 °F - 43.0 °F 86% 29.90 in 5.0 mi ENE 8.1 mph - 0.02 in Rain Light Rain
3:42 PM 46.9 °F - 43.0 °F 86% 29.89 in 3.0 mi NNE 5.8 mph - 0.05 in Rain Light Rain
3:52 PM 46.9 °F - 43.0 °F 86% 29.91 in 5.0 mi North 5.8 mph - 0.05 in Rain Light Rain
4:09 PM 46.9 °F - 43.0 °F 86% 29.90 in 2.5 mi NNW 8.1 mph - 0.02 in Rain Rain
4:33 PM 46.9 °F - 44.1 °F 90% 29.88 in 2.0 mi NNE 6.9 mph - 0.07 in Rain Rain
4:40 PM 46.9 °F - 44.1 °F 90% 29.87 in 3.0 mi NE 4.6 mph - 0.07 in Rain Light Rain
4:48 PM 46.4 °F 43.5 °F 44.6 °F 93% 29.84 in 3.0 mi Variable 5.8 mph - 0.08 in Rain Light Rain
4:52 PM 46.9 °F - 44.1 °F 90% 29.86 in 2.5 mi NNE 4.6 mph - 0.08 in Rain Light Rain
4:59 PM 46.9 °F - 44.1 °F 90% 29.86 in 4.0 mi NNW 9.2 mph - 0.00 in Rain Light Rain
5:10 PM 46.9 °F - 44.1 °F 90% 29.86 in 6.0 mi North 8.1 mph - 0.01 in Rain Light Rain
5:52 PM 46.9 °F - 44.1 °F 90% 29.85 in 5.0 mi NNW 8.1 mph - 0.02 in Rain Light Rain
6:17 PM 46.9 °F - 44.1 °F 90% 29.83 in 7.0 mi NNW 6.9 mph - 0.01 in Rain Light Rain
6:32 PM 46.9 °F - 44.1 °F 90% 29.84 in 8.0 mi NW 10.4 mph - 0.01 in   Overcast
6:52 PM 46.9 °F - 44.1 °F 90% 29.87 in 7.0 mi NW 12.7 mph - 0.01 in Rain Light Rain
7:36 PM 46.9 °F - 44.1 °F 90% 29.85 in 10.0 mi NNW 8.1 mph - 0.02 in   Overcast
7:52 PM 46.9 °F - 44.1 °F 90% 29.86 in 10.0 mi NNW 4.6 mph - 0.02 in   Overcast
8:21 PM 46.9 °F - 44.1 °F 90% 29.84 in 10.0 mi NW 6.9 mph - 0.00 in   Overcast
8:52 PM 46.9 °F - 44.1 °F 90% 29.85 in 10.0 mi NW 9.2 mph - 0.00 in   Overcast
9:52 PM 46.9 °F - 44.1 °F 90% 29.89 in 10.0 mi NW 9.2 mph - N/A   Overcast
10:38 PM 46.9 °F - 44.1 °F 90% 29.90 in 10.0 mi NNW 8.1 mph - N/A   Overcast
10:43 PM 46.9 °F - 44.1 °F 90% 29.90 in 10.0 mi NNW 8.1 mph - N/A   Overcast
10:52 PM 46.9 °F - 44.1 °F 90% 29.91 in 10.0 mi NNW 5.8 mph - N/A   Overcast
11:52 PM 46.9 °F - 44.1 °F 90% 29.91 in 10.0 mi North 4.6 mph - N/A   Overcast